User: anonymous   Login
Location: Unspecified
(0.0000°N, 0.0000°E)
Time: 06:51:56
(UTC+00:00)
Language:

OGO 1 - Orbit

View from above orbital plane
View from above orbital plane
View from above satellite
View from above satellite

Ground track
Ground track

The orbit data is extracted from the following two-line orbital elements,

1   879U 64054A   17090.06731698 -.00000202 +00000-0 +00000-0 0  9995
2   879 086.4239 331.5716 5951160 199.1084 000.7690 00.37803329017132
Epoch (UTC): 31 March 2017 01:36:56
Eccentricity: 0.5951160
inclination: 86.4239°
perigee height: 26334 km
apogee height: 122497 km
right ascension of ascending node: 331.5716°
argument of perigee: 199.1084°
revolutions per day: 0.37803329
mean anomaly at epoch: 0.7690°
orbit number at epoch: 1713

The dashed part of the orbit path shows where the satellite is in the earth's shadow,  

DLR